Regional Weather Roundup
Issued by NWS Charleston, SC

Current Version | Previous Version | Graphics & Text | Print | Product List | Glossary On
Versions: 1 2 3 4 5 6 7 8 9 10 11 12 13 14 15 16 17 18 19 20 21 22 23 24 25 26 27 28 29 30 31 32 33 34 35 36 37 38 39 40 41 42 43 44 45 46 47 48 49 50
000 ASUS42 KCHS 240827 RWRCHS Regional Weather Roundup National Weather Service Charleston SC 400 AM EDT THU MAY 24 2018 NOTE: "fair" indicates few or no clouds below 12,000 feet with no significant weather and/or obstructions to visibility. Not all stations are quality controlled. Use data with caution, especially dewpoint observations. SCZ027-030-031-034>040-042>050-240900- ...Southeast South Carolina... CITY SKY/WX TMP DP RH WIND PRES REMARKS N Charleston FAIR 72 70 93 CALM 30.07R Waterfront Prk N/A 75 32 20 CALM N/A Mount Pleasant FAIR 70 70 100 CALM 30.08S Johns Island FAIR 75 72 88 CALM 30.08R Pinopolis N/A 72 70 94 CALM 30.00S Moncks Corner FAIR 68 66 94 CALM 30.08S Summerville FAIR 68 66 94 CALM 30.09R Beaufort MCAS FAIR 75 73 93 CALM 30.06S Beaufort Arpt FAIR 73 70 88 S3 30.06R Hilton Head Is FAIR 75 72 88 VRB6 30.07S Walterboro FAIR 68 68 100 CALM 30.08R Allendale FAIR 70 70 100 CALM 30.05S ...Southern Midlands and Pee Dee... CITY SKY/WX TMP DP RH WIND PRES REMARKS Georgetown CLOUDY 68 68 100 CALM 30.09S Kingstree FAIR 68 64 88 CALM 30.08S Orangeburg FAIR 70 68 93 CALM 30.07S Barnwell FAIR 70 68 94 CALM 30.07R Aiken FAIR 64 64 100 CALM 30.11R Manning FAIR 64 64 100 CALM 30.08S Columbia FAIR 73 72 96 CALM 30.07R Sumter CLOUDY 71 69 95 SW3 30.06R Florence CLOUDY 72 69 90 S3 30.07S Myrtle Beach FAIR 71 69 93 CALM 30.09S N Myrtle Beach CLOUDY 71 69 93 SW3 30.07S $$ GAZ063-065-086>088-099>101-113>116-118-119-134>141-150-240900- ...Southeast Georgia... CITY SKY/WX TMP DP RH WIND PRES REMARKS Savannah Arpt MOCLDY 73 71 93 S6 30.07S Hunter AAF MOCLDY 74 71 88 S3 30.04S Fort Stewart CLOUDY 72 69 92 SE3 30.04S Statesboro MOCLDY 70 70 99 CALM 30.05F Sylvania FAIR 70 70 100 CALM 30.07S Claxton FAIR 73 72 97 CALM 30.06S ...CSRA, Central and far Southeast Georgia... CITY SKY/WX TMP DP RH WIND PRES REMARKS Thomson FOG 69 69 99 CALM 30.11S VSB<1/4 Augusta-Bush FOG 68 68 100 CALM 30.05S VSB 3/4 Augusta-Daniel FOG 71 70 96 E3 30.07S VSB 3/4 Swainsboro FAIR 72 70 94 CALM 30.07R Vidalia CLOUDY 72 68 88 CALM 30.06S Eastman CLOUDY 73 65 78 CALM 30.08S Hazlehurst N/A 73 69 89 S3 30.05S Alma MOCLDY 72 70 93 S3 30.06F Waycross FAIR 71 68 90 CALM 30.02S Jesup NOT AVBL Baxley FAIR 70 70 100 SW3 30.06F Brunswick CLOUDY 72 68 88 SW3 30.08R Saint Simons CLOUDY 76 71 85 S3 30.06F $$ SCZ027-028-034-036>038-045-046-048>050-GAZ119-141-240900- ...Lake and Supplemental Coastal Observations... STATION/POSITION TIME TEMP WIND PRES WAVE SWELL AIR SEA DIR/SP/G HT/PER HT/PER/DIR (UTC) (F) (DEG/KT/KT) (MB) (FT/S) (FT/S/D) Winyah Bay 0745 72 280/ 2 1019.0S Lake Murray 0720 74 270/ 3/ 5 1017.3 ACE Basin NERRS 0745 74 CALM 1018.0S Fort Pulaski 0754 77 79 210/ 8/ 12 1018.3F Sapelo Island 0800 74 200/ 5 1018.0 $$ ANZ835-935-AMZ111-154-330-350-352-354-370-450-454-472-240900- ...C-MAN and Buoy Observations... STATION/POSITION TIME TEMP WIND PRES WAVE SWELL AIR SEA DIR/SP/G HT/PER HT/PER/DIR (UTC) (F) (DEG/KT/KT) (MB) (FT/S) (FT/S/D) Buoy 41004 0800 74 210/ 4/ 6 1018.2 Buoy 41008 0750 76 76 200/ 8/ 10 1017.8F 3/ 9 2/120/ 9 Folly Beach CMAN 0800 76 210/ 11/ 12 1018.9R Capers Nearshore 0808 76 77 220/ 8/ 10 1019.2R Fripp Nearshore 0808 76 78 210/ 10/ 14 1017.6S STATION/POSITION TIME TEMP WIND PRES WAVE SWELL AIR SEA DIR/SP/G HT/PER HT/PER/DIR (UTC) (F) (DEG/KT/KT) (MB) (FT/S) (FT/S/D) 5E St. Marys GA 0800 77 N/A 2/ 8 Frying Pan Buoy 0810 75 76 230/ 8/ 12 1018.3 Buoy 41025 0810 73 74 300/ 10/ 12 1018.2 Cape Lookout NC 0800 230/ 6/ 7 1018.6S Buoy 41002 0810 78 240/ 10/ 12 1018.8 Buoy 41010 0810 78 79 150/ 8/ 12 1018.7 St Augustine FL 0800 73 77 190/ 3/ 4 1018.5R $$

USA.gov is the U.S. government's official web portal to all federal, state and local government web resources and services.